Current Weather Conditions: station 44139

sailwx.info

Wind from 210 at 11 knots gusting 11

Wave height 1.6 meters (5 feet), 9 second period

Air temperature 10.4° C
Water temperature 7.5° C

Last reported at 2016-May-26 06:00 UTC.
Time now 2016-May-26 06:57 UTC

Location: N 44°12' W 057°06'.
View on Google Maps.

See reports from other nearby stations

  
Tides and Currents Weather Stations Pressure Air Temp Water Temp Dewpoint Dewpoint Depression Visibility Wind Speed Wind Dir Waves Ship Positions
date/time (UTC)wind fromknots sea level pressurealtimeterstation pressurevisibilityair tempwater tempwave heightnotes
2016-May-26 06:00 210 11 gusting 11 10.4 7.5 1.6
2016-May-26 05:00 180 7 gusting 7 10.1 7.8 1.5
2016-May-26 04:00 180 7 gusting 9 10.2 8.3 1.5
2016-May-26 03:00 200 7 gusting 9 10.7 8.6 1.4
2016-May-26 02:00 190 9 gusting 11 10.3 8.5 1.3
2016-May-26 01:00 180 9 gusting 11 10.9 8.6 1.4
2016-May-26 00:00 180 7 gusting 9 10.9 8.8 1.4
2016-May-25 23:00 130 3 gusting 5 10.9 8.7 1.4
2016-May-25 22:00 150 5 gusting 5 10.5 8.6 1.3
2016-May-25 21:00 150 5 gusting 7 10.4 8.8 1.4
2016-May-25 20:00 190 5 gusting 7 10.7 9.0 1.3
2016-May-25 19:00 200 7 gusting 9 11.4 8.9 1.3
2016-May-25 18:00 220 9 gusting 9 11.5 8.7 1.3
2016-May-25 17:00 260 9 gusting 11 11.6 8.8 1.3
2016-May-25 16:00 230 5 gusting 7 12.0 8.7 1.4
2016-May-25 15:00 200 9 gusting 11 12.6 8.7 1.5
2016-May-25 14:00 160 7 gusting 9 11.0 8.7 1.4
2016-May-25 13:00 200 7 gusting 11 11.1 8.7 1.4
2016-May-25 12:00 170 11 gusting 13 10.9 8.6 1.4
2016-May-25 11:00 180 9 gusting 9 10.8 8.5 1.4
2016-May-25 10:00 180 9 gusting 11 11.0 8.6 1.3
2016-May-25 09:00 180 9 gusting 11 11.1 9.0 1.3
2016-May-25 08:00 190 7 gusting 9 10.8 9.1 1.4
2016-May-25 07:00 180 9 gusting 9 11.2 9.2 1.3
2016-May-25 06:00 180 7 gusting 9 11.2 9.1 1.4
2016-May-25 05:00 180 7 gusting 9 11.2 9.0 1.4
2016-May-25 04:00 160 9 gusting 11 10.6 8.8 1.5
2016-May-25 03:00 170 9 gusting 9 10.7 8.8 1.4
2016-May-25 02:00 170 11 gusting 11 10.7 8.6 1.5
2016-May-25 01:00 170 11 gusting 11 10.6 8.7 1.6
2016-May-25 00:00 170 9 gusting 9 10.8 8.8 1.7
2016-May-24 23:00 170 9 gusting 9 10.6 8.6 1.6
2016-May-24 21:00 160 7 gusting 9 11.2 8.7 1.7
2016-May-24 20:00 160 7 gusting 9 10.6 8.8 1.7
2016-May-24 19:00 150 5 gusting 7 10.6 8.8 1.8
2016-May-24 18:00 170 7 gusting 9 10.4 8.6 1.8
2016-May-24 17:00 180 7 gusting 9 10.7 8.7 2.0
2016-May-24 16:00 160 5 gusting 7 10.7 8.7 2.0
2016-May-24 15:00 160 5 gusting 5 10.7 8.3 2.1
2016-May-24 14:00 170 5 gusting 7 10.3 8.1 2.1
2016-May-24 13:00 180 7 gusting 9 10.5 8.1 2.1
2016-May-24 12:00 180 5 gusting 7 10.2 8.0 2.3
2016-May-24 11:00 170 7 gusting 7 9.8 8.0 2.3
2016-May-24 10:00 140 7 gusting 9 9.8 7.9 2.6
2016-May-24 09:00 150 7 gusting 9 9.8 7.8 2.4
2016-May-24 08:00 150 7 gusting 7 9.4 7.9 2.6
2016-May-24 07:00 130 7 gusting 9 9.0 7.8 2.6
2016-May-24 06:00 120 7 gusting 7 8.7 7.8 2.9